User: anonymous   Login
Location: Unspecified
(0.0000°N, 0.0000°E)
Time: 21:41:23
(UTC+00:00)
Language:

NOAA 15 - Orbit

View from above orbital plane
View from above orbital plane
View from above satellite
View from above satellite

Ground track
Ground track

The orbit data is extracted from the following two-line orbital elements,

1 25338U 98030A   17083.93339824 +.00000040 +00000-0 +35762-4 0  9992
2 25338 098.7850 094.6650 0011724 091.7365 268.5157 14.25782371980737
Epoch (UTC): 24 March 2017 22:24:05
Eccentricity: 0.0011724
inclination: 98.7850°
perigee height: 797 km
apogee height: 814 km
right ascension of ascending node: 94.6650°
argument of perigee: 91.7365°
revolutions per day: 14.25782371
mean anomaly at epoch: 268.5157°
orbit number at epoch: 98073

The dashed part of the orbit path shows where the satellite is in the earth's shadow,  

DLR